sat.trackr.live / text

‹ back to catalog

STARLINK-33907

NORAD 63769 · 2025-089U

PAYLOAD ACTIVE UNKNOWN

§ Identity

Operator
Country
US
Launch date
2025-04-29
Launch site
AFETR
Launch vehicle
Mass (kg)
RCS (m²)

Purposes: comms

External: N2YO · Heavens-Above · Gunter

§ Orbital elements

Epoch: 2026-05-24T17:07:49.963008Z

Period
94.27 min
Inclination
43.0051°
Eccentricity
0.0001503
Mean motion
15.27588230 rev/d
Perigee alt
482.0 km
Apogee alt
484.1 km
Semi-major
6,861.2 km
B*
5.2629e-4
RAAN
335.9588°
Arg perigee
251.3258°
Mean anomaly
108.7431°
Rev number
6,053

§ Raw data

STARLINK-339071 63769U 25089U   26144.71377272  .00014252  00000+0  52629-3 0  99982 63769  43.0051 335.9588 0001503 251.3258 108.7431 15.27588230 60531

JSON: /api/v1/satellites/63769 · /tle

For live sub-satellite position, see the globe view (requires WebGL).

§ Visibility from observer

Set your observer location to see the next 7 days of passes ≥ 10°. The values pass through the URL so the page stays shareable.

No JS? Fill the form by hand. The geolocation button needs JavaScript.